Weather History for Huntingburg, IN

Change the Weather History Date:

Monday, February 11, 2013

  Actual Average Record
Temperature  
Mean Temperature 45 °F -  
Max Temperature 53 °F 43 °F 73 °F (1999)
Min Temperature 35 °F 28 °F 1 °F (2014)
Degree Days  
Heating Degree Days 20    
Moisture  
Dew Point 32 °F    
Average Humidity 62    
Maximum Humidity 88    
Minimum Humidity 47    
Precipitation  
Precipitation 0.00 in - - ()
Sea Level Pressure  
Sea Level Pressure 30.00 in    
Wind  
Wind Speed 15 mph (WSW)    
Max Wind Speed 26 mph    
Max Gust Speed 33 mph    
Visibility 10 miles    
Events      
Averages and records for this station are not official NWS values.
T = Trace of Precipitation, MM = Missing Value Source: NWS Daily Summary

Daily Weather History Graph

Daily Weather History Graph

Search for Another Location

Airport:

Trip Planner

Search our weather history database for the weather conditions in past years. The results will help you decide how hot, cold, wet, or windy it might be!

Date:

Astronomy

Feb. 11, 2013 Rise Set
Actual Time 7:42 AM EST 6:22 PM EST
Civil Twilight 7:15 AM EST 6:49 PM EST
Nautical Twilight 6:44 AM EST 7:20 PM EST
Astronomical Twilight 6:13 AM EST 7:51 PM EST
Moon 8:08 AM EST (2/11) 8:15 PM EST (2/11)
Length of Visible Light 11h 34m
Length of Day
10h 39m
Waxing Crescent, 3% of the Moon is Illuminated
Feb 11
Waxing Crescent
Feb 17
First Quarter
Feb 25
Full
Mar 4
Last Quarter
Mar 11
New

Hourly Weather History & Observations

Time (EST) Temp. Windchill Dew Point Humidity Pressure Visibility Wind Dir Wind Speed Gust Speed Precip Events Conditions
12:35 AM 53.6 °F - 48.2 °F 82% 29.80 in 10.0 mi SSW 15.0 mph 19.6 mph N/A   Overcast
12:55 AM 53.6 °F - 48.2 °F 82% 29.81 in 10.0 mi SSW 15.0 mph 20.7 mph N/A   Overcast
1:15 AM 51.8 °F - 48.2 °F 88% 29.82 in 10.0 mi SSW 12.7 mph - N/A   Scattered Clouds
1:35 AM 51.8 °F - 48.2 °F 88% 29.81 in 10.0 mi SSW 13.8 mph - N/A   Clear
1:55 AM 51.8 °F - 48.2 °F 88% 29.82 in 10.0 mi SW 12.7 mph 21.9 mph N/A   Clear
2:15 AM 51.8 °F - 48.2 °F 88% 29.82 in 10.0 mi SW 12.7 mph - N/A   Partly Cloudy
2:35 AM 51.8 °F - 48.2 °F 88% 29.83 in 10.0 mi SSW 12.7 mph 18.4 mph N/A   Partly Cloudy
2:55 AM 51.8 °F - 48.2 °F 88% 29.83 in 10.0 mi SSW 13.8 mph - N/A   Clear
3:15 AM 51.8 °F - 48.2 °F 88% 29.83 in 10.0 mi SSW 15.0 mph 18.4 mph N/A   Clear
3:55 AM 51.8 °F - 44.6 °F 76% 29.84 in 10.0 mi SW 16.1 mph 19.6 mph N/A   Clear
4:15 AM 51.8 °F - 44.6 °F 76% 29.84 in 10.0 mi SW 13.8 mph 20.7 mph N/A   Clear
4:55 AM 50.0 °F - 37.4 °F 62% 29.86 in 10.0 mi SW 15.0 mph 25.3 mph N/A   Clear
5:15 AM 48.2 °F - 33.8 °F 58% 29.87 in 10.0 mi WSW 20.7 mph 28.8 mph N/A   Clear
5:35 AM 48.2 °F - 32.0 °F 54% 29.88 in 10.0 mi WSW 19.6 mph 25.3 mph N/A   Clear
5:55 AM 46.4 °F 38.7 °F 32.0 °F 57% 29.90 in 10.0 mi West 20.7 mph 26.5 mph N/A   Clear
6:35 AM 44.6 °F 39.7 °F 30.2 °F 57% 29.92 in 10.0 mi West 9.2 mph - N/A   Clear
6:55 AM 42.8 °F 35.4 °F 30.2 °F 61% 29.94 in 10.0 mi West 15.0 mph 24.2 mph N/A   Clear
7:15 AM 41.0 °F 32.8 °F 30.2 °F 65% 29.95 in 10.0 mi West 16.1 mph - N/A   Clear
7:55 AM 39.2 °F 31.2 °F 28.4 °F 65% 29.98 in 10.0 mi WSW 13.8 mph - N/A   Clear
8:15 AM 39.2 °F 29.6 °F 28.4 °F 65% 29.98 in 10.0 mi West 19.6 mph - N/A   Clear
8:35 AM 41.0 °F 32.2 °F 28.4 °F 61% 30.00 in 10.0 mi West 18.4 mph 25.3 mph N/A   Clear
9:15 AM 41.0 °F 32.5 °F 28.4 °F 61% 30.02 in 10.0 mi West 17.3 mph 21.9 mph N/A   Clear
9:35 AM 41.0 °F 31.9 °F 28.4 °F 61% 30.03 in 10.0 mi West 19.6 mph 28.8 mph N/A   Clear
9:55 AM 42.8 °F 34.8 °F 26.6 °F 53% 30.04 in 10.0 mi West 17.3 mph - N/A   Clear
10:15 AM 42.8 °F 33.5 °F 28.4 °F 57% 30.04 in 10.0 mi West 23.0 mph 27.6 mph N/A   Clear
10:35 AM 42.8 °F 32.9 °F 28.4 °F 57% 30.04 in 10.0 mi WSW 26.5 mph 29.9 mph N/A   Clear
10:55 AM 42.8 °F 33.8 °F 28.4 °F 57% 30.06 in 10.0 mi West 21.9 mph 33.4 mph N/A   Clear
11:15 AM 44.6 °F 36.6 °F 28.4 °F 53% 30.06 in 10.0 mi WSW 19.6 mph 25.3 mph N/A   Clear
11:35 AM 44.6 °F 36.4 °F 30.2 °F 57% 30.05 in 10.0 mi West 20.7 mph 26.5 mph N/A   Clear
11:55 AM 44.6 °F 36.6 °F 30.2 °F 57% 30.05 in 10.0 mi WSW 19.6 mph 24.2 mph N/A   Clear
12:15 PM 46.4 °F 38.3 °F 30.2 °F 53% 30.04 in 10.0 mi West 23.0 mph 28.8 mph N/A   Clear
12:35 PM 46.4 °F 38.5 °F 30.2 °F 53% 30.04 in 10.0 mi West 21.9 mph 26.5 mph N/A   Clear
12:55 PM 46.4 °F 38.5 °F 32.0 °F 57% 30.04 in 10.0 mi West 21.9 mph 26.5 mph N/A   Clear
1:15 PM 46.4 °F 39.2 °F 32.0 °F 57% 30.04 in 10.0 mi West 18.4 mph 23.0 mph N/A   Clear
1:35 PM 48.2 °F - 32.0 °F 54% 30.04 in 10.0 mi SW 17.3 mph 25.3 mph N/A   Scattered Clouds
1:55 PM 48.2 °F - 32.0 °F 54% 30.04 in 10.0 mi WSW 20.7 mph 25.3 mph N/A   Scattered Clouds
2:15 PM 48.2 °F - 30.2 °F 50% 30.05 in 10.0 mi WSW 20.7 mph 27.6 mph N/A   Partly Cloudy
2:35 PM 48.2 °F - 30.2 °F 50% 30.05 in 10.0 mi WSW 23.0 mph - N/A   Clear
3:15 PM 48.2 °F - 30.2 °F 50% 30.04 in 10.0 mi WSW 21.9 mph 32.2 mph N/A   Clear
3:35 PM 48.2 °F - 30.2 °F 50% 30.04 in 10.0 mi WSW 17.3 mph - N/A   Clear
3:55 PM 50.0 °F - 30.2 °F 47% 30.05 in 10.0 mi West 20.7 mph 27.6 mph N/A   Clear
4:15 PM 48.2 °F - 30.2 °F 50% 30.05 in 10.0 mi WSW 18.4 mph 32.2 mph N/A   Clear
4:35 PM 48.2 °F - 30.2 °F 50% 30.05 in 10.0 mi West 15.0 mph 25.3 mph N/A   Clear
4:55 PM 48.2 °F - 30.2 °F 50% 30.06 in 10.0 mi West 18.4 mph 28.8 mph N/A   Clear
5:55 PM 46.4 °F 39.8 °F 28.4 °F 50% 30.06 in 10.0 mi West 16.1 mph 27.6 mph N/A   Clear
6:15 PM 46.4 °F 40.1 °F 28.4 °F 50% 30.06 in 10.0 mi West 15.0 mph - N/A   Clear
6:35 PM 44.6 °F 38.4 °F 28.4 °F 53% 30.07 in 10.0 mi West 12.7 mph - N/A   Clear
6:55 PM 44.6 °F 38.4 °F 28.4 °F 53% 30.07 in 10.0 mi West 12.7 mph - N/A   Clear
7:15 PM 42.8 °F 36.6 °F 28.4 °F 57% 30.08 in 10.0 mi West 11.5 mph - N/A   Clear
7:35 PM 41.0 °F 35.2 °F 28.4 °F 61% 30.09 in 10.0 mi West 9.2 mph - N/A   Clear
7:55 PM 39.2 °F 32.5 °F 28.4 °F 65% 30.09 in 10.0 mi West 10.4 mph - N/A   Clear
8:15 PM 39.2 °F 33.0 °F 28.4 °F 65% 30.10 in 10.0 mi West 9.2 mph - N/A   Clear
8:35 PM 39.2 °F 34.2 °F 26.6 °F 61% 30.09 in 10.0 mi WSW 6.9 mph - N/A   Clear
8:55 PM 39.2 °F 33.6 °F 26.6 °F 61% 30.10 in 10.0 mi West 8.1 mph - N/A   Clear
9:15 PM 37.4 °F 32.1 °F 26.6 °F 65% 30.10 in 10.0 mi West 6.9 mph - N/A   Clear
9:35 PM 37.4 °F 32.1 °F 26.6 °F 65% 30.11 in 10.0 mi West 6.9 mph - N/A   Clear
9:55 PM 37.4 °F 32.1 °F 26.6 °F 65% 30.12 in 10.0 mi West 6.9 mph - N/A   Clear
10:15 PM 37.4 °F 31.4 °F 26.6 °F 65% 30.12 in 10.0 mi SW 8.1 mph - N/A   Clear
10:35 PM 39.2 °F 35.0 °F 26.6 °F 61% 30.12 in 10.0 mi SW 5.8 mph - N/A   Clear
10:55 PM 37.4 °F 31.4 °F 26.6 °F 65% 30.13 in 10.0 mi SW 8.1 mph - N/A   Clear
11:35 PM 39.2 °F 33.6 °F 26.6 °F 61% 30.13 in 10.0 mi WSW 8.1 mph - N/A   Clear
11:55 PM 35.6 °F 28.6 °F 26.6 °F 70% 30.14 in 10.0 mi West 9.2 mph - N/A   Clear